, AK

(GMT )
Cape Lisburne

Weather History for PALU - March, 2014

Change the Weather History Date:

Wednesday, March 19, 2014

  Actual Average Record
Temperature  
Mean Temperature 10 °F -  
Max Temperature 21 °F 2 °F 32 °F (2011)
Min Temperature 0 °F -6 °F -24 °F (2012)
Degree Days  
Heating Degree Days 54    
Moisture  
Dew Point 1 °F    
Average Humidity 72    
Maximum Humidity 85    
Minimum Humidity 38    
Precipitation  
Precipitation 0.00 in - - ()
Sea Level Pressure  
Sea Level Pressure 30.41 in    
Wind  
Wind Speed 36 mph (SW)    
Max Wind Speed 47 mph    
Max Gust Speed 53 mph    
Visibility 7 miles    
Events Snow    
Averages and records for this station are not official NWS values.
T = Trace of Precipitation, MM = Missing Value Source: NWS Daily Summary

Daily Weather History Graph

Daily Weather History Graph

Search for Another Location

Airport or City:

Trip Planner

Search our weather history database for the weather conditions in past years. The results will help you decide how hot, cold, wet, or windy it might be!

Date:

Astronomy

Mar. 19, 2014 Rise Set
Actual Time 9:06 AM AKDT 9:19 PM AKDT
Civil Twilight 8:09 AM AKDT 10:17 PM AKDT
Nautical Twilight 6:56 AM AKDT 11:30 PM AKDT
Astronomical Twilight 5:24 AM AKDT 1:05 AM AKDT
Moon 1:16 AM AKDT (3/19) 9:02 AM AKDT (3/19)
Length of Visible Light 14h 08m
Length of Day
12h 12m
Waning Gibbous, 90% of the Moon is Illuminated
Mar 19
Waning Gibbous
Mar 23
Last Quarter
Mar 30
New
Apr 7
First Quarter
Apr 14
Full

Hourly Weather History & Observations

Time (AKDT) Temp. Windchill Dew Point Humidity Pressure Visibility Wind Dir Wind Speed Gust Speed Precip Events Conditions
12:07 AM 1.4 °F -28.2 °F -2.2 °F 85% 30.18 in 1.8 mi SW 46.0 mph 51.8 mph N/A Snow Light Snow
12:27 AM -0.4 °F -30.2 °F -4.0 °F 85% 30.20 in 1.8 mi SW 43.7 mph 50.6 mph N/A Snow Light Snow
12:47 AM -0.4 °F -30.0 °F -4.0 °F 85% 30.22 in 2.5 mi WSW 42.6 mph 49.5 mph N/A Snow Light Snow
12:55 AM 0.1 °F -28.3 °F -3.6 °F 84% 30.23 in 3.0 mi WSW 39.1 mph 47.2 mph 0.00 in Snow Light Snow
1:07 AM 1.4 °F -27.4 °F -4.0 °F 78% 30.22 in 2.0 mi SW 42.6 mph 48.3 mph N/A Snow Light Snow
1:27 AM 1.4 °F -27.2 °F -4.0 °F 78% 30.24 in 4.0 mi WSW 41.4 mph 49.5 mph N/A Snow Light Snow
1:47 AM -0.4 °F -30.0 °F -4.0 °F 85% 30.26 in 1.8 mi SW 42.6 mph 48.3 mph N/A Snow Light Snow
1:55 AM 0.3 °F -29.0 °F -4.2 °F 81% 30.26 in 1.5 mi SW 42.6 mph 48.3 mph 0.00 in Snow Light Snow
2:55 AM -0.4 °F -30.2 °F -4.7 °F 82% 30.30 in 1.2 mi SW 43.7 mph 51.8 mph 0.00 in Snow Light Snow
3:27 AM -0.4 °F -30.2 °F -4.0 °F 85% 30.31 in 1.2 mi SW 43.7 mph - N/A Snow Light Snow
3:47 AM -0.4 °F -29.7 °F -4.0 °F 85% 30.33 in 0.8 mi SW 41.4 mph 49.5 mph N/A Snow Light Snow
3:55 AM -0.4 °F -30.2 °F -4.2 °F 84% 30.33 in 1.2 mi SW 43.7 mph 49.5 mph 0.00 in Snow Light Snow
4:07 AM -0.4 °F -30.5 °F -4.0 °F 85% 30.33 in 1.0 mi SW 44.9 mph 49.5 mph N/A Snow Light Snow
4:27 AM -0.4 °F -31.0 °F -4.0 °F 85% 30.33 in 0.8 mi SW 47.2 mph 52.9 mph N/A Snow Light Snow
4:47 AM -0.4 °F -30.8 °F -4.0 °F 85% 30.34 in 1.5 mi SW 46.0 mph - N/A Snow Light Snow
4:55 AM -0.8 °F -30.7 °F -5.3 °F 81% 30.35 in 2.0 mi SW 43.7 mph 49.5 mph 0.00 in Snow Light Snow
5:07 AM -0.4 °F -30.2 °F -4.0 °F 85% 30.35 in 1.5 mi SW 43.7 mph 48.3 mph N/A Snow Light Snow
5:47 AM 1.4 °F -27.4 °F -4.0 °F 78% 30.37 in 10.0 mi SW 42.6 mph - N/A   Clear
5:55 AM 1.9 °F -26.1 °F -3.5 °F 78% 30.38 in 10.0 mi SW 40.3 mph 46.0 mph N/A   Clear
6:47 AM 5.0 °F -19.4 °F -0.4 °F 78% 30.42 in 10.0 mi SW 31.1 mph 40.3 mph N/A Snow Light Snow Showers
6:55 AM 5.4 °F -18.9 °F -1.3 °F 74% 30.42 in 10.0 mi WSW 31.1 mph 43.7 mph 0.00 in Snow Light Snow Showers
7:27 AM 5.0 °F -19.4 °F -2.2 °F 72% 30.43 in 10.0 mi WSW 31.1 mph 41.4 mph N/A   Clear
7:55 AM 5.5 °F -18.6 °F -2.0 °F 71% 30.44 in 10.0 mi WSW 31.1 mph 42.6 mph N/A   Clear
8:55 AM 8.8 °F -12.4 °F -8.3 °F 46% 30.46 in 10.0 mi WSW 25.3 mph 33.4 mph N/A   Clear
9:55 AM 11.1 °F -6.2 °F -9.9 °F 38% 30.47 in 10.0 mi WSW 17.3 mph - N/A   Clear
10:55 AM 13.1 °F -8.0 °F -7.4 °F 40% 30.47 in 10.0 mi SSW 29.9 mph - N/A   Partly Cloudy
11:47 AM 15.8 °F -4.1 °F 1.4 °F 53% 30.49 in 10.0 mi SW 28.8 mph 38.0 mph N/A Snow Light Snow
11:55 AM 15.1 °F -5.3 °F 3.2 °F 59% 30.48 in 10.0 mi SW 29.9 mph - 0.00 in Snow Light Snow
12:27 PM 17.6 °F -1.3 °F 6.8 °F 63% 30.48 in 10.0 mi SSW 27.6 mph - N/A   Mostly Cloudy
12:55 PM 16.9 °F 9.8 °F 6.1 °F 63% 30.52 in 10.0 mi Variable 4.6 mph - N/A   Mostly Cloudy
1:27 PM 17.6 °F 1.3 °F 6.8 °F 63% 30.52 in 10.0 mi South 19.6 mph 26.5 mph N/A   Mostly Cloudy
1:47 PM 17.6 °F 0.1 °F 6.8 °F 63% 30.51 in 10.0 mi SSW 23.0 mph - N/A   Scattered Clouds
1:55 PM 18.1 °F 1.2 °F 7.5 °F 63% 30.51 in 10.0 mi SSW 21.9 mph - N/A   Partly Cloudy
2:55 PM 18.1 °F 0.1 °F 8.4 °F 66% 30.52 in 10.0 mi SW 25.3 mph - N/A   Clear
3:55 PM 19.0 °F -0.8 °F 8.6 °F 64% 30.51 in 10.0 mi SW 33.4 mph 39.1 mph N/A   Clear
4:55 PM 19.2 °F 1.9 °F 9.9 °F 67% 30.53 in 10.0 mi SW 24.2 mph - N/A   Clear
5:55 PM 20.7 °F 3.5 °F 10.0 °F 64% 30.54 in 10.0 mi SW 25.3 mph - N/A   Clear
6:55 PM 20.8 °F 5.9 °F 10.0 °F 63% 30.55 in 10.0 mi SW 18.4 mph - N/A   Clear
7:55 PM 19.2 °F 4.7 °F 9.5 °F 66% 30.57 in 10.0 mi WSW 16.1 mph 17.3 mph N/A   Clear
8:55 PM 21.4 °F 13.8 °F 8.2 °F 57% 30.57 in 10.0 mi Variable 5.8 mph - N/A   Clear
9:55 PM 17.4 °F 12.1 °F 11.5 °F 78% 30.57 in 10.0 mi ENE 3.5 mph - N/A   Partly Cloudy
10:55 PM 17.1 °F - 9.5 °F 72% 30.57 in 10.0 mi Variable 1.2 mph - N/A   Mostly Cloudy
11:55 PM 16.7 °F 7.2 °F 6.6 °F 65% 30.58 in 10.0 mi SSE 6.9 mph - N/A   Partly Cloudy